Date String (YYYY-MM-DD hh:mm:ss) UTC,Instrument flags,absolute air pressure of the measurement (hPa),sample flow rate (lpm),inlet stack bypass flow (lpm),air temperature of the measurement (°C),ambient temperature measured by the external sensor (°C),aerosol sample conditioner tube jacket temperature (°C),OPC LED temperature (°C),internal box temperature (°C),relative humidity of the measurement (%),span deviation,mass concentration of particles derived from Lorenz-Mie calculation of OPC scattering (μg/m³),mass concentration of particles derived from Lorenz-Mie calculation of OPC scattering (μg/m³),mass concentration of particles derived from Lorenz-Mie calculation of OPC scattering (μg/m³)
DateTimeUTC,F1_M11,P_M11,Q1_M11,Q2_M11,T1_M11,T2_M11,T3_M11,T4_M11,T5_M11,U1_M11,ZSPAN_M11,X2_M11,X0_M11,X1_M11
2023-07-21 16:00:00,SystemResetWarning,0838.7,4.99,000.00,031.2,027.2,000.0,039.2,031.3,34.0,-001.1,0006.64,0010.51,0006.30
2023-07-21 16:01:00,SystemResetWarning,0838.7,5.00,000.00,031.2,027.5,000.0,039.2,031.4,34.3,-000.9,0006.65,0010.58,0006.33
2023-07-21 16:02:00,SystemResetWarning,0838.7,5.00,000.00,031.2,027.7,000.0,039.2,031.4,34.2,-000.8,0006.62,0011.09,0006.34
2023-07-21 16:03:00,SystemResetWarning,0838.7,5.00,000.00,031.1,027.8,000.0,039.3,031.4,33.6,-000.7,0006.64,0011.11,0006.35
2023-07-21 16:04:00,SystemResetWarning,0838.6,5.00,000.00,031.1,028.0,000.0,039.3,031.5,33.6,-000.6,0006.68,0011.08,0006.39
2023-07-21 16:05:00,SystemResetWarning,0838.6,5.00,000.00,031.1,028.1,000.0,039.3,031.5,33.4,-000.5,0006.73,0010.38,0006.41
2023-07-21 16:06:00,SystemResetWarning,0838.7,4.99,000.00,031.1,028.2,000.0,039.3,031.6,33.9,-001.0,0006.77,0010.56,0006.43
2023-07-21 16:07:00,SystemResetWarning,0838.7,4.99,000.00,031.1,028.3,000.0,039.3,031.6,34.5,-000.6,0006.78,0010.72,0006.40
2023-07-21 16:08:00,SystemResetWarning,0838.6,5.03,000.00,031.1,027.9,000.0,039.2,031.6,34.6,-000.6,0006.79,0010.78,0006.40
2023-07-21 16:09:00,SystemResetWarning,0838.6,4.97,000.00,031.1,026.3,000.0,039.1,031.4,34.5,-000.4,0006.80,0010.79,0006.43
2023-07-21 16:10:00,SystemResetWarning,0838.6,5.02,000.00,031.1,025.5,000.0,038.9,031.3,33.8,-000.4,0006.86,0010.87,0006.47
2023-07-21 16:11:00,SystemResetWarning,0838.6,5.00,000.00,031.0,025.4,000.0,038.9,031.1,33.5,-000.9,0006.83,0010.60,0006.46
2023-07-21 16:12:00,SystemResetWarning,0838.5,4.99,000.00,030.9,025.7,000.0,039.0,031.0,34.6,-001.2,0006.83,0010.52,0006.46
2023-07-21 16:13:00,SystemResetWarning,0838.6,5.03,000.00,030.9,026.2,000.0,039.0,031.0,34.9,-001.1,0006.85,0010.34,0006.47
2023-07-21 16:14:00,SystemResetWarning,0838.6,4.97,000.00,031.0,026.5,000.0,039.0,031.2,34.0,-001.1,0006.84,0010.35,0006.46
2023-07-21 16:15:00,SystemResetWarning,0838.6,5.02,000.00,031.0,026.9,000.0,039.0,031.3,34.0,-000.8,0006.80,0010.30,0006.44
2023-07-21 16:16:00,SystemResetWarning,0838.6,5.00,000.00,031.0,027.2,000.0,039.0,031.3,34.4,-001.0,0006.77,0010.22,0006.44
2023-07-21 16:17:00,SystemResetWarning,0838.6,4.99,000.00,031.0,027.4,000.0,039.0,031.3,34.4,-000.9,0006.77,0010.15,0006.45
2023-07-21 16:18:00,SystemResetWarning,0838.6,5.00,000.00,031.0,027.6,000.0,039.1,031.4,33.9,-001.1,0006.83,0010.12,0006.49
2023-07-21 16:19:00,SystemResetWarning,0838.6,5.00,000.00,031.0,027.8,000.0,039.1,031.4,34.3,-001.2,0006.84,0010.07,0006.51
2023-07-21 16:20:00,SystemResetWarning,0838.6,5.01,000.00,031.0,028.0,000.0,039.1,031.5,34.1,-001.2,0006.87,0010.11,0006.51
2023-07-21 16:21:00,SystemResetWarning,0838.6,5.01,000.00,031.0,028.1,000.0,039.1,031.5,33.8,-001.3,0006.83,0010.04,0006.48
2023-07-21 16:22:00,SystemResetWarning,0838.6,5.00,000.00,031.0,028.2,000.0,039.1,031.6,34.2,-001.0,0006.84,0010.06,0006.46
2023-07-21 16:23:00,SystemResetWarning,0838.6,4.98,000.00,031.0,028.2,000.0,039.1,031.6,33.5,-000.7,0006.82,0010.01,0006.44
2023-07-21 16:24:00,SystemResetWarning,0838.6,5.01,000.00,031.0,027.1,000.0,039.0,031.5,33.1,-000.8,0006.80,0009.56,0006.42
2023-07-21 16:25:00,SystemResetWarning,0838.6,5.00,000.00,031.0,025.7,000.0,038.9,031.2,33.6,-000.7,0006.78,0009.51,0006.41
2023-07-21 16:26:00,SystemResetWarning,0838.6,5.00,000.00,030.9,025.3,000.0,038.8,031.1,33.9,-000.6,0006.80,0009.56,0006.41
2023-07-21 16:27:00,SystemResetWarning,0838.6,5.01,000.00,030.7,025.5,000.0,038.8,030.9,34.4,-000.6,0006.80,0009.71,0006.40
2023-07-21 16:28:00,SystemResetWarning,0838.6,5.01,000.00,030.6,025.9,000.0,038.9,030.9,34.7,-000.6,0006.81,0010.34,0006.39
2023-07-21 16:29:00,SystemResetWarning,0838.6,5.00,000.00,030.6,026.3,000.0,038.9,031.0,34.7,-000.4,0006.75,0010.27,0006.36
2023-07-21 16:30:00,SystemResetWarning,0838.6,5.00,000.00,030.6,026.7,000.0,038.9,031.1,34.2,-000.4,0006.72,0010.28,0006.33
2023-07-21 16:31:00,SystemResetWarning,0838.6,5.00,000.00,030.6,027.0,000.0,038.9,031.2,34.6,-000.1,0006.68,0010.21,0006.32
2023-07-21 16:32:00,SystemResetWarning,0838.6,5.00,000.00,030.6,027.3,000.0,038.9,031.2,34.5,0000.3,0006.65,0010.16,0006.31
2023-07-21 16:33:00,SystemResetWarning,0838.6,4.98,000.00,030.7,027.5,000.0,038.9,031.3,35.1,0000.4,0006.63,0010.13,0006.31
2023-07-21 16:34:00,SystemResetWarning,0838.6,5.03,000.00,030.8,027.7,000.0,038.9,031.4,34.3,0000.4,0006.65,0010.17,0006.32
2023-07-21 16:35:00,SystemResetWarning,0838.6,4.97,000.00,030.9,027.9,000.0,038.9,031.4,33.2,0000.5,0006.64,0010.17,0006.31
2023-07-21 16:36:00,SystemResetWarning,0838.6,5.03,000.00,030.9,028.0,000.0,038.9,031.5,33.5,-000.0,0006.66,0010.20,0006.31
2023-07-21 16:37:00,SystemResetWarning,0838.6,5.00,000.00,031.0,028.1,000.0,038.9,031.5,33.1,-000.1,0006.67,0010.20,0006.32
2023-07-21 16:38:00,SystemResetWarning,0838.5,4.98,000.00,031.0,028.1,000.0,038.9,031.5,34.0,0000.8,0006.66,0010.07,0006.32
2023-07-21 16:39:00,SystemResetWarning,0838.4,5.01,000.00,031.0,027.0,000.0,038.8,031.4,33.9,0001.1,0006.64,0009.36,0006.34
2023-07-21 16:40:00,SystemResetWarning,0838.4,5.00,000.00,030.9,025.6,000.0,038.7,031.1,33.7,0001.0,0006.67,0009.38,0006.35
2023-07-21 16:41:00,SystemResetWarning,0838.4,5.01,000.00,030.9,025.3,000.0,038.7,031.0,34.8,0000.9,0006.65,0009.28,0006.36
2023-07-21 16:42:00,SystemResetWarning,0838.4,5.01,000.00,030.7,025.6,000.0,038.7,030.8,34.1,0000.7,0006.65,0009.26,0006.36
2023-07-21 16:43:00,SystemResetWarning,0838.3,5.00,000.00,030.6,026.0,000.0,038.8,030.9,33.6,0000.4,0006.67,0009.29,0006.38
2023-07-21 16:44:00,SystemResetWarning,0838.4,4.99,000.00,030.5,026.4,000.0,038.8,030.9,33.5,0000.5,0006.67,0009.26,0006.39
2023-07-21 16:45:00,SystemResetWarning,0838.4,5.00,000.00,030.5,026.7,000.0,038.8,031.0,33.0,0000.7,0006.66,0009.37,0006.39
2023-07-21 16:46:00,SystemResetWarning,0838.4,5.00,000.00,030.5,027.0,000.0,038.8,031.1,33.2,0001.0,0006.62,0009.48,0006.38
2023-07-21 16:47:00,SystemResetWarning,0838.5,5.01,000.00,030.5,027.3,000.0,038.8,031.1,33.9,0001.4,0006.60,0009.45,0006.36
2023-07-21 16:48:00,SystemResetWarning,0838.4,5.00,000.00,030.4,027.5,000.0,038.8,031.2,34.3,0001.3,0006.55,0009.36,0006.33
2023-07-21 16:49:00,SystemResetWarning,0838.4,4.99,000.00,030.4,027.7,000.0,038.8,031.2,34.6,0000.3,0006.52,0009.28,0006.31
2023-07-21 16:50:00,SystemResetWarning,0838.4,5.01,000.00,030.5,027.9,000.0,038.8,031.3,35.3,-000.2,0006.51,0009.28,0006.29
2023-07-21 16:51:00,SystemResetWarning,0838.4,5.01,000.00,030.6,028.0,000.0,038.8,031.4,35.1,0000.0,0006.50,0009.26,0006.27
2023-07-21 16:52:00,SystemResetWarning,0838.4,4.96,000.00,030.9,028.1,000.0,038.8,031.5,35.1,0000.6,0006.53,0009.29,0006.30
2023-07-21 16:53:00,SystemResetWarning,0838.4,5.03,000.00,031.1,028.1,000.0,038.8,031.7,34.4,0000.7,0006.55,0009.34,0006.31
2023-07-21 16:54:00,SystemResetWarning,0838.4,4.98,000.00,031.3,026.8,000.0,038.7,031.5,34.1,0000.3,0006.54,0009.44,0006.27
2023-07-21 16:55:00,SystemResetWarning,0838.3,5.03,000.00,031.4,025.6,000.0,038.6,031.3,33.5,0000.2,0006.54,0009.45,0006.25
2023-07-21 16:56:00,SystemResetWarning,0838.3,4.98,000.00,031.3,025.4,000.0,038.6,031.1,34.4,0000.4,0006.54,0009.33,0006.24
2023-07-21 16:57:00,SystemResetWarning,0838.2,5.04,000.00,031.2,025.6,000.0,038.7,030.9,35.1,0000.5,0006.55,0009.19,0006.24
2023-07-21 16:58:00,SystemResetWarning,0838.2,4.97,000.00,031.3,026.0,000.0,038.8,031.0,34.4,0000.2,0006.55,0009.23,0006.23
2023-07-21 16:59:00,SystemResetWarning,0838.2,5.00,000.00,031.3,026.4,000.0,038.9,031.2,34.5,-000.1,0006.55,0009.25,0006.23
